{"data":{"norad_id":49419,"epoch":"2026-05-25T00:03:00.338400Z","epoch_age_seconds":85125,"freshness":"FRESH","line1":"1 49419U 21104M   26145.00208725  .00000777  00000+0  66937-4 0  9992","line2":"2 49419  53.2151 246.5393 0000914  55.9447 304.1632 15.08830347250146","mean_motion":15.08830347,"eccentricity":9.14e-5,"inclination_deg":53.2151,"raan_deg":246.5393,"arg_perigee_deg":55.9447,"mean_anomaly_deg":304.1632,"bstar":6.6937e-5,"rev_number":25014,"period_min":95.438165255832,"perigee_km":539.14059751631,"apogee_km":540.40519144502,"semimajor_km":6917.9098944807,"source":"CELESTRAK","updated_at":"2026-05-25T13:38:16.796741Z"}}